TimeMST,TemperatureF,Dew PointF,Humidity,Sea Level PressureIn,VisibilityMPH,Wind Direction,Wind SpeedMPH,Gust SpeedMPH,PrecipitationIn,Events,Conditions,WindDirDegrees,DateUTC
12:35 AM,-5.8,-9.4,84,30.36,10.0,Calm,Calm,-,N/A,,Clear,0,2013-01-04 07:35:00
12:55 AM,-7.6,-9.4,92,30.36,10.0,ENE,3.5,-,N/A,,Clear,70,2013-01-04 07:55:00
1:15 AM,-7.6,-11.2,84,30.35,10.0,Calm,Calm,-,N/A,,Clear,0,2013-01-04 08:15:00
1:35 AM,-7.6,-11.2,84,30.36,10.0,Calm,Calm,-,N/A,,Clear,0,2013-01-04 08:35:00
1:55 AM,-7.6,-11.2,84,30.35,10.0,ESE,3.5,-,N/A,,Clear,110,2013-01-04 08:55:00
2:15 AM,-7.6,-11.2,84,30.36,10.0,Calm,Calm,-,N/A,,Clear,0,2013-01-04 09:15:00
2:35 AM,-9.4,-13.0,84,30.36,10.0,Calm,Calm,-,N/A,,Clear,0,2013-01-04 09:35:00
2:55 AM,-7.6,-11.2,84,30.35,10.0,Calm,Calm,-,N/A,,Clear,0,2013-01-04 09:55:00
3:15 AM,-9.4,-13.0,84,30.36,10.0,Calm,Calm,-,N/A,,Clear,0,2013-01-04 10:15:00
3:35 AM,-9.4,-13.0,84,30.35,10.0,East,3.5,-,N/A,,Clear,100,2013-01-04 10:35:00
3:55 AM,-9.4,-14.8,77,30.35,10.0,East,3.5,-,N/A,,Clear,100,2013-01-04 10:55:00
4:35 AM,-9.4,-13.0,84,30.35,10.0,Calm,Calm,-,N/A,,Clear,0,2013-01-04 11:35:00
4:55 AM,-9.4,-13.0,84,30.35,10.0,Calm,Calm,-,N/A,,Clear,0,2013-01-04 11:55:00
5:15 AM,-9.4,-13.0,84,30.35,10.0,Calm,Calm,-,N/A,,Clear,0,2013-01-04 12:15:00
5:35 AM,-11.2,-14.8,84,30.35,10.0,Calm,Calm,-,N/A,,Clear,0,2013-01-04 12:35:00
5:55 AM,-9.4,-14.8,77,30.35,10.0,Calm,Calm,-,N/A,,Clear,0,2013-01-04 12:55:00
6:15 AM,-11.2,-16.6,77,30.35,10.0,Calm,Calm,-,N/A,,Clear,0,2013-01-04 13:15:00
6:35 AM,-11.2,-16.6,77,30.35,10.0,Calm,Calm,-,N/A,,Clear,0,2013-01-04 13:35:00
6:50 AM,-11.2,-16.6,77,30.35,10.0,Calm,Calm,-,N/A,,Clear,0,2013-01-04 13:50:00
7:50 AM,-11.2,-16.6,77,30.36,10.0,Calm,Calm,-,N/A,,Partly Cloudy,0,2013-01-04 14:50:00
8:50 AM,-9.4,-14.8,77,30.36,10.0,Calm,Calm,-,N/A,,Partly Cloudy,0,2013-01-04 15:50:00
9:50 AM,-7.6,-13.0,77,30.36,10.0,Calm,Calm,-,N/A,,Partly Cloudy,0,2013-01-04 16:50:00
10:50 AM,-2.2,-7.6,78,30.33,10.0,Calm,Calm,-,N/A,,Partly Cloudy,0,2013-01-04 17:50:00
11:50 AM,5.0,-2.2,72,30.29,10.0,Calm,Calm,-,N/A,,Partly Cloudy,0,2013-01-04 18:50:00
12:50 PM,8.6,-0.4,67,30.23,10.0,Calm,Calm,-,N/A,,Clear,0,2013-01-04 19:50:00
1:50 PM,14.0,1.4,57,30.19,10.0,Calm,Calm,-,N/A,,Clear,0,2013-01-04 20:50:00
2:50 PM,15.8,1.4,53,30.17,10.0,Calm,Calm,-,N/A,,Clear,0,2013-01-04 21:50:00
3:50 PM,17.6,1.4,49,30.16,10.0,Calm,Calm,-,N/A,,Clear,0,2013-01-04 22:50:00
4:50 PM,19.4,1.4,46,30.16,10.0,Calm,Calm,-,N/A,,Clear,0,2013-01-04 23:50:00
5:50 PM,8.6,1.4,73,30.18,10.0,Calm,Calm,-,N/A,,Clear,0,2013-01-05 00:50:00
6:50 PM,5.0,-2.2,72,30.19,10.0,Calm,Calm,-,N/A,,Clear,0,2013-01-05 01:50:00
7:50 PM,1.4,-2.2,85,30.21,10.0,Calm,Calm,-,N/A,,Clear,0,2013-01-05 02:50:00
8:50 PM,-0.4,-5.8,78,30.21,10.0,Calm,Calm,-,N/A,,Clear,0,2013-01-05 03:50:00
9:50 PM,-0.4,-5.8,78,30.22,10.0,Calm,Calm,-,N/A,,Clear,0,2013-01-05 04:50:00
10:50 PM,-4.0,-7.6,85,30.24,10.0,Calm,Calm,-,N/A,,Clear,0,2013-01-05 05:50:00
11:15 PM,-4.0,-7.6,85,30.25,10.0,East,4.6,-,N/A,,Clear,100,2013-01-05 06:15:00
11:35 PM,-5.8,-9.4,84,30.25,10.0,East,8.1,-,N/A,,Clear,90,2013-01-05 06:35:00
11:55 PM,-5.8,-9.4,84,30.24,10.0,East,6.9,-,N/A,,Clear,90,2013-01-05 06:55:00